Temperature
22 22 22 21 21 20 20 20 20 19 19 19 19 19 18 18 18 18 18 18 18 18 18 18 18 18 18 18 18 17 17 17 17 17 17 17 17 17 17 17 17 17 17
22 21 21 21 21 20 20 20 19 19 19 19 19 19 18 18 18 18 18 18 18 18 18 18 18 18 18 18 18 17 17 18 17 17 17 17 18 18 17 17 17 17 17
22 21 21 21 20 20 20 19 19 19 19 19 18 18 18 18 18 18 18 18 18 18 18 18 18 18 18 18 18 17 17 18 17 17 17 17 18 18 18 18 18 17 17
22 22 21 21 20 20 20 19 19 19 19 18 18 18 18 18 18 18 18 18 18 18 18 18 18 18 18 18 18 18 17 17 18 17 17 17 18 17 17 18 18 17 17
22 22 21 21 21 20 20 19 19 19 18 18 18 18 18 18 18 18 18 18 18 18 18 18 18 18 18 18 18 18 18 18 18 18 17 17 17 17 17 17 17 17 17
22 22 21 21 20 20 19 19 19 19 18 18 18 18 18 18 18 18 18 18 18 18 18 18 18 18 18 18 18 18 18 18 18 18 17 18 17 18 17 17 17 17 17
22 21 21 21 20 20 19 19 19 19 18 18 18 18 18 18 18 18 18 18 18 18 18 18 18 18 18 18 17 17 17 17 17 17 17 17 17 17 17 17 17 17 17
22 22 21 21 20 20 20 19 19 19 18 18 18 18 18 18 18 18 18 18 18 18 18 18 18 18 17 17 17 17 17 17 17 17 17 17 17 17 17 17 17 17 16
22 22 21 21 20 20 20 19 19 19 19 18 18 18 18 18 18 18 18 18 18 18 18 18 17 17 17 17 17 17 17 17 17 17 17 17 17 17 17 17 17 17 16
22 22 22 21 20 20 20 19 19 19 19 19 18 18 18 18 18 18 18 18 18 18 18 17 17 17 17 17 17 17 17 17 17 17 17 17 17 17 17 17 16 16 16
22 22 22 21 21 20 20 19 19 19 19 19 19 18 18 18 18 17 18 18 17 17 17 17 17 17 17 17 17 17 17 17 17 17 16 16 16 16 16 16 16 16 16
22 22 22 21 21 20 20 20 19 19 19 19 19 18 18 18 18 18 18 17 17 17 17 17 17 17 17 17 17 17 16 16 16 16 16 16 16 16 16 16 16 16 16
22 22 21 21 21 20 20 20 20 19 19 19 18 18 18 18 18 17 17 17 17 17 17 17 17 17 17 16 16 16 16 16 16 16 16 16 16 16 15 15 15 15 15
22 22 22 21 21 20 20 20 20 19 19 19 18 18 18 18 18 17 17 17 17 17 17 16 16 16 16 16 16 16 16 16 15 15 15 15 15 15 15 15 15 15 15
22 22 22 21 21 20 20 20 20 19 19 19 18 18 18 17 17 17 17 17 16 16 16 16 16 16 16 16 15 15 15 15 15 15 15 15 15 15 15 15 15 14 14
22 22 22 21 21 21 20 20 19 19 19 18 18 18 18 17 17 17 16 16 16 16 16 16 16 15 15 15 15 15 15 15 15 14 14 14 14 14 14 14 14 14 13
22 22 22 21 21 21 20 20 19 19 18 18 18 18 17 17 17 16 16 16 16 16 15 15 15 15 15 15 14 14 14 14 14 14 14 14 13 13 13 13 13 13 13
22 22 22 21 21 21 20 20 19 19 18 18 18 17 17 17 16 16 16 16 15 15 15 15 15 15 14 14 14 14 14 14 14 13 13 13 13 13 13 13 13 12 12
22 22 22 21 21 20 20 19 19 18 18 18 17 17 17 17 16 16 16 15 15 15 15 14 14 14 14 14 14 14 13 13 13 13 12 12 12 12 12 12 12 12 11
22 22 21 21 20 20 19 19 18 18 18 17 17 17 16 16 16 16 15 15 15 14 14 14 14 14 13 13 13 13 13 13 13 12 12 12 12 11 11 11 11 11 11
21 21 21 20 20 19 19 19 18 18 17 17 17 16 16 16 16 15 15 14 14 14 14 14 14 13 13 13 13 13 13 12 12 12 12 11 11 11 11 10 10 10 10
20 20 20 19 19 18 18 18 18 17 17 16 16 16 16 16 15 15 14 14 14 14 14 13 13 13 13 12 12 12 12 12 11 11 11 11 10 10 10 10 10 9 9
19 19 19 18 18 18 18 17 17 17 16 16 16 15 15 15 15 14 14 14 13 13 13 13 13 12 12 12 12 12 11 11 11 11 11 10 10 10 9 9 9 9 9
18 18 18 18 17 17 17 17 17 16 16 16 15 15 15 14 14 14 13 13 13 13 13 13 12 12 12 12 11 11 11 11 11 10 10 10 9 9 9 8 8 8 8
18 17 17 17 17 16 16 16 16 16 16 15 15 14 14 14 14 13 13 13 13 13 12 12 12 12 12 11 11 11 10 10 10 10 10 9 9 9 8 8 8 8 8
17 17 16 16 16 16 16 16 15 15 15 15 14 14 14 13 13 13 12 12 12 12 12 12 12 11 11 11 10 10 10 10 10 9 9 9 9 8 8 8 8 8 8
Wind_Speed
7 8 9 10 9 7 7 7 8 7 6 4 4 3 2 2 2 4 7 9 10 9 7 4 4 5 4 5 5 3 3 2 2 2 1 3 2 3 4 5 6 8 12
7 8 8 9 8 8 7 7 7 7 7 5 4 3 3 2 3 3 5 8 9 9 8 6 4 4 4 4 4 4 3 2 2 3 2 2 4 3 3 3 5 6 8
11 10 9 8 8 8 8 8 7 7 7 6 4 3 2 1 1 2 3 5 8 9 8 7 6 5 4 4 4 5 5 3 2 3 4 3 3 2 3 2 3 4 4
11 10 9 9 8 8 7 7 7 7 6 6 6 6 5 4 5 4 4 4 6 7 8 7 6 5 4 5 5 5 4 4 3 2 2 3 4 3 1 3 2 2 3
11 11 10 10 8 7 7 7 7 7 6 6 7 6 4 4 3 3 4 4 3 5 6 7 6 5 4 5 5 4 4 4 4 3 2 2 1 2 3 2 2 1 1
10 10 9 8 6 6 6 6 7 6 6 6 6 6 5 4 4 4 4 3 3 3 4 5 5 5 4 5 5 5 5 5 4 4 3 3 3 3 3 3 3 2 2
10 10 9 8 7 7 7 6 7 6 6 6 6 6 6 6 6 5 5 4 3 3 4 4 4 4 5 5 5 5 4 5 4 4 4 3 4 3 3 3 3 2 1
10 10 10 9 9 8 8 7 7 6 6 6 5 5 5 4 4 4 4 4 3 3 3 3 3 4 5 5 4 4 4 3 4 4 4 3 3 3 3 4 3 2 1
11 10 9 8 8 8 8 8 8 6 5 5 5 4 4 4 4 4 4 3 2 3 3 3 3 3 3 3 3 2 2 2 2 2 2 2 2 2 2 3 4 4 3
9 9 9 8 7 7 6 6 7 6 5 5 4 4 4 4 4 3 3 3 2 2 2 2 2 2 2 2 3 2 2 2 1 2 2 1 1 1 1 2 2 3 4
8 8 7 7 7 6 7 6 6 5 5 5 4 3 3 4 4 3 3 3 2 2 2 2 3 2 2 2 3 2 3 3 1 1 1 0 0 0 0 0 1 2 3
8 7 7 7 7 7 7 6 6 5 5 4 4 4 3 4 4 3 3 3 3 2 2 2 3 3 3 3 3 3 3 3 2 2 2 1 1 1 1 0 0 1 2
7 7 6 7 7 7 6 6 6 6 5 5 5 4 3 4 4 4 3 3 3 3 3 4 4 3 2 3 3 3 3 3 2 2 2 1 2 2 1 1 1 0 1
9 8 7 7 7 7 7 6 5 5 5 5 5 4 4 4 4 4 4 4 4 4 4 3 3 3 3 3 3 4 4 4 3 3 3 2 2 2 1 1 1 2 3
8 9 8 7 7 7 7 7 7 6 6 6 5 4 4 5 5 4 4 4 4 4 4 4 3 3 3 3 4 4 5 5 4 4 4 4 5 5 4 3 2 3 3
8 8 7 7 7 7 7 7 7 7 7 7 6 5 5 6 5 4 4 5 5 4 4 4 4 4 3 5 6 5 5 5 4 4 4 5 6 7 8 9 8 6 5
7 7 7 8 7 7 7 7 7 7 7 7 7 6 6 6 5 5 5 5 5 4 4 3 4 4 4 6 7 7 5 5 4 4 3 3 5 6 5 8 10 10 9
8 7 6 6 6 6 6 6 7 7 7 7 7 7 7 6 6 6 5 5 4 5 4 4 4 4 4 6 7 8 6 5 4 4 3 4 3 4 5 6 7 7 7
8 8 7 7 6 7 7 7 7 6 7 6 6 6 7 7 6 6 5 5 5 5 4 4 5 5 3 5 7 8 5 5 4 3 3 4 4 5 7 7 7 6 5
5 6 7 7 7 6 7 8 7 6 5 5 6 6 6 7 6 5 5 5 5 5 5 5 4 5 3 5 7 8 5 4 3 3 3 4 5 6 7 6 6 5 2
6 6 7 7 6 6 7 7 6 5 5 5 6 6 6 6 6 5 5 6 6 5 5 5 4 4 4 5 6 7 4 4 4 3 2 2 5 6 6 5 4 4 3
6 6 6 5 4 6 7 7 5 5 6 7 6 6 5 5 5 6 5 5 6 6 5 5 4 3 3 4 5 6 6 6 4 3 2 2 6 7 7 5 4 5 5
5 5 6 5 4 4 6 7 5 6 8 7 6 5 5 4 4 5 5 5 4 5 4 4 3 2 2 3 6 7 7 7 4 3 5 6 7 7 5 5 6 5 4
5 5 6 5 4 3 4 5 6 6 8 7 6 6 6 5 5 4 3 4 4 4 4 4 4 3 2 2 2 3 4 6 5 4 5 7 7 6 5 4 4 3 2
5 4 4 5 4 4 4 4 5 7 7 7 6 6 5 6 6 5 4 2 2 2 5 4 5 5 4 3 5 5 3 3 4 5 4 3 3 3 3 3 3 2 2
5 5 5 5 5 5 4 4 4 6 8 6 5 5 5 5 5 6 5 9 6 5 4 5 6 4 5 7 7 6 6 7 8 5 3 2 2 1 1 1 1 1 1
Wind_Direction
163 150 149 150 147 151 155 159 156 160 155 149 149 145 151 161 172 184 178 181 183 176 167 165 168 166 169 180 176 170 182 193 153 106 350 323 272 226 217 204 197 205 210
148 148 147 150 154 160 161 158 162 164 168 165 160 160 154 169 185 195 186 186 186 183 179 171 177 177 170 175 180 167 161 199 164 147 122 343 336 311 244 214 206 210 208
164 160 155 156 156 163 169 172 167 168 174 162 143 134 112 106 156 193 200 203 195 192 186 181 178 181 177 187 195 183 172 192 216 176 155 165 223 285 316 249 216 207 206
164 160 157 157 163 170 167 164 164 167 173 164 162 168 175 193 207 199 201 204 195 193 190 186 184 186 185 191 202 193 184 175 202 220 203 185 168 169 289 319 286 233 216
161 162 166 166 169 169 166 166 164 169 173 171 172 179 190 202 204 193 184 196 199 194 195 191 187 188 192 196 200 189 184 184 189 195 194 193 185 176 174 249 295 315 283
158 156 157 154 158 163 164 164 167 176 179 180 180 186 192 195 190 184 181 195 198 201 207 202 196 197 196 199 201 196 192 194 191 192 187 184 186 196 186 210 233 248 291
154 152 153 157 161 165 169 167 170 179 184 187 194 199 196 189 189 187 189 194 197 210 219 213 205 204 204 201 196 195 201 194 190 196 199 201 206 192 178 184 211 222 248
157 159 166 165 169 172 172 171 174 182 185 187 194 195 188 186 191 188 181 188 197 210 210 203 203 201 197 201 190 192 200 188 195 205 200 201 216 199 188 182 178 207 252
160 162 167 169 172 174 177 176 176 182 185 179 173 178 176 177 180 178 179 187 194 201 189 184 182 181 175 170 163 166 185 173 188 198 199 208 231 210 204 189 176 177 212
157 161 164 171 174 172 170 166 170 175 174 172 170 168 169 170 169 163 168 169 179 174 157 157 154 149 150 152 151 149 158 141 163 173 161 188 232 230 200 182 179 178 188
162 164 168 172 165 157 157 158 159 158 161 165 161 153 160 161 151 150 159 159 160 153 149 153 138 127 126 134 130 136 132 135 137 129 136 157 152 168 260 179 177 185 174
164 159 162 163 156 154 156 158 159 159 166 166 157 156 151 145 143 150 156 154 151 140 132 121 111 116 117 122 131 141 128 129 124 108 93 63 61 47 27 54 143 188 181
160 157 154 163 160 156 157 159 160 162 160 153 149 149 141 137 140 145 141 135 125 107 95 98 106 106 107 110 115 122 115 117 116 110 110 97 87 59 29 57 76 167 132
165 164 161 164 162 162 163 163 163 159 150 143 142 143 137 134 131 121 113 111 109 103 94 92 96 100 95 93 100 105 103 98 84 77 78 76 87 83 73 71 92 116 110
165 167 164 164 163 161 165 165 162 155 148 139 138 140 129 117 108 102 100 102 101 105 104 97 87 82 90 96 109 109 109 100 87 67 60 64 76 74 75 80 88 108 112
170 165 159 153 157 161 165 165 165 158 149 144 144 140 130 119 117 116 111 105 100 95 95 95 95 84 89 105 110 114 111 108 104 87 67 62 58 67 71 77 81 98 117
155 154 160 158 167 168 161 164 162 152 149 150 148 145 137 135 136 129 118 114 109 98 92 90 98 96 96 113 111 108 111 107 101 97 88 80 70 69 72 69 67 63 68
149 151 163 160 161 156 153 152 147 146 147 146 148 150 145 144 138 129 127 125 116 108 102 97 102 97 90 110 115 112 105 99 94 93 98 100 83 84 91 82 71 60 48
155 154 158 156 150 151 150 141 140 141 144 149 150 150 148 144 139 137 135 130 118 108 100 94 99 101 92 109 117 116 105 98 86 77 80 96 92 93 100 95 88 71 49
127 134 137 133 138 144 140 136 141 139 146 151 146 143 141 141 143 144 134 125 121 119 113 100 89 95 96 112 120 121 115 107 95 68 59 77 99 101 104 105 105 97 66
106 114 121 129 139 134 131 133 136 146 144 133 128 127 133 139 138 132 128 128 124 119 116 108 88 81 84 99 115 122 124 130 118 100 69 56 94 102 104 109 115 128 118
90 97 102 104 108 120 127 132 141 141 129 126 126 125 124 129 131 129 129 132 133 127 123 114 97 65 59 77 106 119 122 124 122 125 109 82 87 85 83 83 91 107 105
95 97 105 96 88 108 132 138 142 131 129 128 126 119 112 109 118 129 136 136 136 137 141 137 129 103 68 69 86 106 116 116 112 118 112 96 85 77 67 65 76 87 92
94 96 99 100 93 97 111 133 136 130 130 130 127 124 119 107 94 92 112 135 147 150 152 152 150 138 112 99 96 100 105 104 102 101 89 80 71 69 63 53 53 63 92
91 97 105 107 98 87 92 111 125 128 127 128 128 123 117 115 97 80 62 92 111 162 166 171 164 156 158 186 165 149 142 143 137 116 87 72 68 57 45 43 39 45 68
95 93 94 99 98 93 87 87 104 125 129 129 130 128 124 120 119 113 85 53 65 76 99 129 137 129 139 140 139 140 133 130 131 114 115 116 115 124 132 118 61 47 72
Height
1531 1533 1534 1536 1538 1540 1541 1543 1545 1547 1549 1551 1553 1555 1557 1559 1560 1562 1563 1564 1566 1568 1569 1571 1572 1573 1574 1575 1576 1577 1578 1578 1579 1580 1580 1580 1580 1581 1581 1581 1582 1582 1583
1530 1532 1533 1535 1537 1538 1540 1541 1543 1545 1547 1549 1552 1554 1556 1557 1559 1560 1561 1563 1565 1566 1568 1569 1570 1572 1573 1573 1574 1575 1576 1577 1578 1578 1578 1579 1580 1579 1579 1579 1580 1580 1581
1528 1530 1532 1534 1536 1537 1538 1540 1541 1543 1545 1547 1550 1552 1554 1556 1557 1559 1560 1561 1563 1565 1566 1567 1568 1570 1570 1571 1572 1573 1574 1575 1576 1577 1577 1577 1577 1577 1577 1577 1578 1578 1579
1526 1529 1531 1533 1535 1536 1537 1539 1540 1541 1543 1545 1548 1549 1551 1553 1554 1556 1558 1559 1561 1563 1564 1565 1566 1567 1568 1569 1570 1571 1572 1573 1573 1574 1575 1576 1576 1576 1576 1576 1576 1576 1576
1526 1528 1530 1532 1534 1535 1536 1537 1539 1540 1542 1544 1546 1548 1549 1551 1553 1555 1556 1557 1559 1561 1562 1563 1564 1565 1566 1567 1568 1569 1570 1570 1571 1572 1572 1573 1573 1574 1574 1574 1574 1574 1574
1526 1528 1530 1532 1533 1534 1535 1537 1538 1539 1541 1542 1544 1546 1547 1549 1551 1552 1554 1555 1557 1558 1560 1561 1561 1562 1563 1564 1565 1566 1567 1568 1568 1569 1570 1570 1571 1571 1571 1571 1571 1571 1572
1526 1528 1530 1532 1533 1534 1535 1536 1537 1538 1539 1541 1542 1543 1545 1547 1548 1550 1552 1553 1555 1556 1557 1558 1558 1559 1560 1562 1563 1563 1564 1565 1566 1566 1567 1567 1568 1569 1569 1569 1568 1568 1569
1526 1528 1529 1531 1532 1533 1534 1535 1536 1537 1538 1539 1540 1542 1543 1545 1546 1548 1549 1551 1552 1553 1554 1555 1556 1556 1557 1558 1560 1561 1561 1562 1563 1563 1564 1564 1565 1565 1565 1566 1566 1565 1565
1526 1528 1529 1531 1532 1533 1534 1535 1536 1536 1537 1538 1539 1540 1542 1543 1545 1546 1548 1549 1550 1551 1552 1553 1553 1554 1555 1556 1557 1557 1558 1559 1560 1560 1560 1561 1561 1561 1562 1562 1562 1563 1561
1526 1528 1530 1531 1532 1533 1534 1535 1536 1536 1537 1538 1538 1539 1541 1542 1543 1545 1546 1547 1548 1549 1549 1550 1551 1552 1553 1553 1554 1555 1555 1556 1556 1557 1557 1557 1557 1557 1558 1558 1558 1558 1558
1527 1528 1530 1531 1532 1533 1534 1535 1536 1537 1537 1538 1538 1539 1540 1541 1542 1543 1544 1545 1546 1547 1548 1548 1549 1550 1550 1551 1552 1552 1553 1553 1553 1554 1554 1554 1554 1554 1554 1554 1554 1554 1554
1526 1528 1530 1531 1532 1533 1534 1535 1536 1537 1537 1538 1538 1539 1539 1540 1541 1542 1543 1544 1545 1546 1546 1547 1547 1548 1548 1548 1549 1549 1550 1550 1550 1551 1551 1551 1551 1550 1550 1550 1550 1550 1550
1526 1528 1530 1531 1531 1532 1533 1535 1536 1537 1537 1538 1538 1539 1539 1540 1540 1541 1542 1543 1544 1544 1545 1545 1545 1546 1546 1546 1547 1547 1547 1548 1548 1548 1548 1548 1548 1547 1547 1547 1547 1547 1547
1526 1528 1528 1530 1531 1532 1533 1535 1535 1536 1537 1537 1538 1538 1539 1539 1540 1540 1541 1542 1542 1543 1543 1543 1543 1544 1544 1545 1545 1545 1545 1545 1546 1546 1546 1545 1545 1545 1545 1544 1544 1544 1544
1524 1526 1527 1528 1530 1531 1533 1535 1535 1536 1536 1537 1537 1538 1538 1539 1539 1540 1540 1540 1541 1542 1542 1542 1542 1542 1542 1543 1543 1543 1544 1544 1544 1544 1544 1544 1544 1543 1543 1543 1542 1542 1542
1522 1524 1526 1527 1529 1530 1532 1534 1534 1535 1535 1536 1536 1537 1538 1538 1538 1539 1539 1540 1540 1540 1540 1540 1540 1540 1540 1541 1542 1542 1542 1542 1542 1542 1542 1543 1543 1543 1542 1542 1541 1541 1541
1520 1522 1524 1526 1528 1529 1531 1532 1533 1534 1535 1535 1536 1537 1537 1538 1538 1538 1539 1539 1539 1539 1539 1539 1539 1539 1539 1539 1540 1541 1541 1541 1541 1541 1542 1542 1542 1542 1542 1541 1541 1541 1540
1519 1522 1524 1526 1527 1528 1529 1531 1532 1532 1533 1534 1535 1536 1536 1537 1537 1538 1538 1539 1539 1539 1539 1538 1538 1538 1538 1538 1539 1540 1540 1541 1541 1541 1541 1542 1541 1541 1541 1541 1540 1540 1540
1518 1520 1522 1524 1525 1527 1528 1529 1530 1531 1532 1533 1534 1534 1535 1536 1536 1537 1538 1538 1538 1538 1538 1538 1537 1537 1537 1538 1538 1539 1540 1540 1541 1541 1541 1542 1541 1541 1541 1541 1540 1540 1540
1518 1520 1521 1522 1524 1525 1526 1527 1528 1529 1530 1531 1532 1533 1534 1535 1535 1536 1537 1537 1538 1538 1538 1538 1537 1537 1537 1538 1538 1539 1540 1540 1540 1541 1541 1541 1541 1541 1541 1541 1540 1540 1540
1518 1520 1521 1522 1523 1524 1525 1526 1527 1528 1529 1530 1531 1532 1533 1534 1535 1535 1536 1536 1537 1537 1537 1537 1537 1537 1538 1538 1539 1539 1540 1540 1540 1541 1541 1541 1541 1541 1541 1541 1541 1540 1541
1518 1519 1521 1522 1523 1524 1525 1525 1526 1527 1528 1529 1530 1531 1532 1533 1533 1534 1535 1535 1536 1536 1536 1536 1537 1537 1538 1538 1539 1539 1540 1540 1540 1541 1541 1541 1541 1541 1541 1541 1541 1541 1541
1519 1520 1521 1522 1523 1524 1525 1525 1525 1526 1527 1528 1529 1529 1530 1531 1532 1532 1533 1534 1534 1535 1535 1535 1536 1536 1537 1538 1538 1539 1540 1540 1540 1540 1540 1541 1541 1541 1541 1541 1541 1541 1541
1520 1520 1521 1522 1522 1523 1524 1524 1525 1525 1526 1527 1527 1528 1528 1529 1530 1531 1531 1532 1533 1534 1534 1534 1535 1535 1536 1537 1538 1538 1539 1540 1540 1540 1540 1541 1541 1541 1541 1541 1541 1541 1542
1520 1521 1521 1522 1522 1523 1523 1524 1524 1524 1525 1525 1526 1526 1527 1527 1528 1529 1530 1531 1532 1533 1533 1534 1534 1534 1535 1536 1537 1538 1539 1539 1540 1540 1540 1540 1541 1541 1541 1541 1541 1542 1542
1520 1520 1521 1521 1521 1521 1522 1522 1523 1523 1524 1524 1524 1525 1525 1526 1527 1528 1529 1530 1531 1532 1532 1533 1534 1534 1535 1536 1537 1538 1539 1539 1539 1540 1540 1540 1540 1541 1541 1541 1541 1542 1542